Regional Weather Roundup
Issued by NWS Burlington, VT

Current Version | Previous Version | Graphics & Text | Print | Product List | Glossary On
Versions: 1 2 3 4 5 6 7 8 9 10 11 12 13 14 15 16 17 18 19 20 21 22 23 24 25 26 27 28 29 30 31 32 33 34 35 36 37 38 39 40 41 42 43 44 45 46 47 48 49 50
000
ASUS41 KBTV 051530
RWRBTV
VERMONT REGIONAL WEATHER ROUNDUP
NATIONAL WEATHER SERVICE BURLINGTON VT
1100 AM EDT WED AUG 05 2020

NOTE: "FAIR" INDICATES FEW OR NO CLOUDS BELOW 12,000 FEET WITH NO
SIGNIFICANT WEATHER AND/OR OBSTRUCTIONS TO VISIBILITY.

* THESE REPORTS ARE NOT UNDER NWS QUALITY CONTROL AND/OR DO NOT
  REPORT WEATHER SUCH AS PRECIPITATION AND FOG.

VTZ001>019-051600-
_____VERMONT_____


CITY           SKY/WX    TMP DP  RH WIND       PRES   REMARKS
BURLINGTON     HVY RAIN  71  64  78 S13G20    29.92R
MONTPELIER     MOSUNNY   73  60  63 SW8G18    30.00R
MORRISVILLE    MOSUNNY   76  63  64 S13       29.93S
ST. JOHNSBURY*   N/A     76  60  57 MISG      29.92R
LYNDONVILLE*   FAIR      77  62  61 S15       29.96F
MIDDLEBURY*    CLOUDY    75  63  66 S9G18     29.95S
RUTLAND*       PTSUNNY   74  62  66 W12       29.99R
SPRINGFIELD    MOSUNNY   77  60  55 SW10G18   29.98R
HIGHGATE*      FAIR      78  58  50 SW13G23   29.90R
NEWPORT*       LGT RAIN  66  63  88 SW9       29.96R
BENNINGTON     PTSUNNY   76  62  62 SW8       30.01R
ISLAND POND*     N/A     73 N/A N/A SW12        N/A
GALLUP MILLS*    N/A     70 N/A N/A MISG        N/A
LAKE EDEN*       N/A     66 N/A N/A N1          N/A
MT. MANSFIELD*   N/A     61 N/A N/A SW23        N/A

_____LAKE CHAMPLAIN_____


CITY           SKY/WX    TMP DP  RH WIND       PRES   REMARKS
BURTON ISLAND*   N/A     72  59  64 SW16G32     N/A
DIAMOND ISL*     N/A    N/A N/A N/A S22         N/A

$$

NYZ007-026>031-035-052-083-087-051600-
_____NORTHERN NEW YORK_____


CITY           SKY/WX    TMP DP  RH WIND       PRES   REMARKS
PLATTSBURGH    CLOUDY    68  61  78 VRB6      29.91R
SARANAC LAKE   CLOUDY    65  59  81 SW10      29.98R
MASSENA        RAIN      68  63  84 W13G26    29.92R
OGDENSBURG*    FAIR      72  61  68 SW12G23   29.92R
POTSDAM*       PTSUNNY   70  63  78 W16G23    29.93R
WATERTOWN      PTSUNNY   72  60  66 W17       29.98R
FT DRUM        PTSUNNY   68  59  73 W10G21    29.98R
ALBANY         PTSUNNY   75  62  64 W10       30.00R
GLENS FALLS    SUNNY     76  58  53 W10       29.97R

$$
NHZ002-005-011-051600-
_____NEW HAMPSHIRE_____


CITY           SKY/WX    TMP DP  RH WIND       PRES   REMARKS
LEBANON        MOSUNNY   80  61  52 SW9       29.96S
KEENE          CLOUDY    77  66  68 VRB3      29.99S
MT WASHINGTON  FOG       52  52 100 W38G44      N/A  VSB 0
PLYMOUTH       FAIR      78  61  56 MISG      29.96S
WHITEFIELD     PTSUNNY   75  60  59 VRB7G20   29.96R

$$

_____REGIONAL QUEBEC LOCATIONS_____


CITY           SKY/WX    TMP DP  RH WIND       PRES   REMARKS
MONTREAL       PTSUNNY   72  64  78 SW20      29.86S
QUEBEC CITY    PTSUNNY   72  64  78 SW20G33   29.80R
SHERBROOKE     MOSUNNY   73  64  73 SW17G23   29.89R

_____REGIONAL ONTARIO LOCATIONS_____


CITY           SKY/WX    TMP DP  RH WIND       PRES   REMARKS
OTTAWA         PTSUNNY   66  61  82 W13G22    29.90R

______KEY______
VSB  - VISIBILITY IN MILES
WCI  - WIND CHILL INDEX
HX   - HEAT INDEX
$$
NNNN



USA.gov is the U.S. government's official web portal to all federal, state and local government web resources and services.